GFSCGP_850_thetae_000.txt.gz
Theta_e
323 321 320 319 317 319 321 321 320 320 318 318 317 315 317 318 320 318 316 315 315 315 315 319 320 320 321 321 318 320 321 324 323 323 324 324 323 324 323 322 322 322 323 323
322 321 321 320 320 320 321 321 321 320 318 317 316 317 317 318 320 320 316 315 315 315 317 320 320 318 323 323 317 318 317 323 324 325 324 323 324 323 323 323 323 323 323 327
321 322 322 322 320 320 319 320 321 320 319 318 318 318 320 319 320 321 317 317 316 316 317 319 320 319 323 325 317 317 319 317 322 324 325 324 324 324 325 326 328 326 322 326
321 322 322 322 321 319 318 319 321 322 320 319 319 319 319 320 320 320 317 316 316 316 317 320 320 320 321 324 323 311 318 317 318 319 324 326 324 325 327 326 327 328 325 324
323 322 321 322 322 319 319 319 319 321 318 318 320 319 320 320 322 323 318 317 316 316 317 319 320 320 321 323 324 315 318 318 319 318 321 325 327 327 328 326 328 329 328 327
322 323 322 322 320 318 319 321 321 319 318 320 319 320 319 320 321 322 319 317 316 317 317 319 320 320 322 321 324 320 322 324 321 318 321 325 326 325 325 323 325 327 328 329
322 322 322 319 318 319 320 319 320 321 319 321 321 321 321 320 320 323 319 317 317 317 317 319 321 320 322 322 322 322 320 318 322 318 317 320 325 324 323 320 322 324 327 328
322 323 322 321 318 318 317 318 321 323 322 323 327 326 322 326 322 323 321 318 317 318 318 320 320 320 322 322 322 323 322 319 321 320 318 317 318 322 323 320 320 323 324 325
321 322 322 321 320 318 319 320 318 320 322 323 328 330 328 327 324 324 320 317 317 318 318 319 319 320 321 323 322 323 322 316 317 321 320 318 318 316 316 316 319 320 322 323
321 322 321 323 327 325 318 319 322 318 323 325 324 334 331 329 326 322 318 317 317 318 318 319 319 321 321 321 321 323 320 311 311 312 314 316 315 316 316 315 315 319 319 320
321 320 323 328 328 324 326 328 328 324 323 323 323 332 330 330 326 322 319 318 318 318 318 318 319 320 320 320 322 323 318 318 314 309 309 309 313 316 318 314 311 317 318 318
319 319 322 331 329 328 328 331 330 331 330 326 329 329 329 328 325 323 320 319 318 318 318 318 320 320 321 321 322 321 319 319 318 314 312 309 308 310 315 313 314 313 319 322
320 320 330 329 330 328 326 330 331 330 329 330 331 328 328 328 326 324 321 319 318 318 319 318 320 320 320 321 322 320 318 319 319 319 316 310 309 308 308 314 313 316 319 322
323 320 324 326 327 329 330 328 329 329 330 329 329 329 328 329 327 326 322 320 318 318 318 318 320 320 320 321 321 321 318 317 321 320 316 311 309 308 308 310 315 315 316 321
321 322 324 324 326 329 328 328 328 329 328 329 329 331 327 328 329 328 327 322 319 318 318 319 320 320 320 320 321 321 317 316 321 320 315 311 309 310 312 313 312 315 317 316
324 325 329 334 329 329 330 328 328 328 327 327 328 328 326 328 328 327 328 323 320 318 318 319 320 319 320 320 320 321 318 316 319 316 313 311 309 310 312 312 313 311 311 314
324 325 324 332 331 330 332 330 328 328 326 326 327 326 326 327 327 326 326 325 322 320 318 319 320 319 319 320 320 321 319 316 317 313 313 311 310 310 312 312 312 311 310 309
326 322 322 330 330 332 328 327 327 328 327 326 326 326 325 327 327 326 327 327 323 323 320 319 319 319 319 319 319 321 321 318 318 314 312 312 311 310 312 312 311 310 310 310
325 324 327 330 325 327 328 328 328 329 327 327 326 325 326 326 327 327 328 329 329 325 324 324 321 319 319 319 319 320 321 319 319 317 314 313 312 312 312 312 312 311 310 309
325 323 325 321 325 328 325 324 326 326 328 324 325 324 325 325 328 326 328 328 327 327 327 324 322 319 319 319 319 320 321 320 319 320 318 315 315 313 313 315 315 315 314 313
327 325 325 321 320 325 324 325 326 328 326 327 327 326 325 325 325 327 328 326 326 328 327 324 323 321 319 319 319 319 320 321 320 320 321 320 318 317 314 317 318 319 319 318
328 324 324 320 323 328 324 325 326 324 325 327 327 328 328 328 327 327 326 326 329 328 327 324 324 323 320 319 319 319 320 320 322 321 322 322 323 320 317 315 319 321 320 319
328 323 323 322 323 321 324 324 324 324 324 327 327 327 327 327 327 327 327 327 328 329 328 326 325 324 320 319 319 319 319 320 320 322 322 323 324 324 322 319 317 319 320 320
324 321 323 323 322 320 323 323 323 324 325 326 326 327 327 326 327 326 327 328 328 328 326 328 325 323 321 320 319 319 319 319 319 321 323 323 323 325 325 323 321 320 319 320
322 323 322 322 322 322 322 322 322 324 324 324 326 326 326 327 327 326 326 326 328 327 328 328 327 325 325 322 321 319 319 319 318 319 320 322 323 323 324 324 324 323 323 322
319 322 323 322 321 322 324 325 328 328 326 326 325 326 327 327 326 326 326 326 326 327 327 328 327 328 327 325 323 321 319 319 319 319 320 320 320 322 322 323 323 323 323 323

GFSCGP_850_thetae_003.txt.gz
Theta_e
322 319 319 319 318 318 319 320 320 320 318 318 316 316 315 318 317 316 315 315 315 315 315 318 319 317 315 313 317 316 322 323 323 323 323 323 323 322 322 321 321 321 321 323
320 319 320 319 319 319 318 319 319 318 318 316 317 317 315 316 317 317 315 315 315 315 317 319 319 317 319 316 314 316 319 322 324 324 322 323 322 323 324 322 322 323 324 323
321 322 321 320 320 320 319 319 319 319 319 317 316 316 318 317 318 319 315 315 315 315 317 318 318 317 319 319 312 317 317 320 320 324 323 323 325 324 325 324 322 323 326 326
320 320 321 321 321 319 319 318 319 320 318 317 317 317 318 318 317 317 315 315 315 315 317 318 319 318 317 321 317 317 317 320 319 323 325 325 325 324 326 325 323 325 326 326
322 320 320 321 321 320 320 320 318 319 318 317 319 317 318 318 319 320 314 315 315 316 316 319 319 318 318 322 320 317 320 319 318 324 326 326 326 326 327 326 324 322 324 325
321 322 320 321 321 320 320 318 318 316 316 317 317 318 317 320 320 321 316 315 315 316 317 318 319 317 320 322 322 317 323 321 318 321 324 324 324 323 323 327 327 328 324 326
321 320 320 320 319 317 317 315 316 318 318 320 319 320 319 319 319 321 319 316 316 316 317 318 319 318 321 320 322 320 317 320 319 317 320 324 322 321 320 323 327 328 328 328
321 323 320 320 319 319 315 315 316 319 319 320 322 324 323 320 324 321 321 319 317 316 317 318 319 318 321 321 321 322 320 318 320 318 317 319 321 320 320 323 324 328 327 329
321 322 321 319 318 316 317 318 316 318 319 321 322 324 326 324 323 321 318 316 317 316 317 318 319 318 320 321 321 322 321 318 320 319 318 318 318 319 319 321 322 325 325 328
319 321 319 320 320 319 316 316 318 315 321 321 321 326 327 327 325 323 316 315 316 317 317 318 319 318 320 321 321 322 321 314 317 320 318 317 316 314 314 318 320 321 325 326
317 319 321 322 322 320 320 322 322 317 318 320 320 324 324 327 326 324 318 316 317 317 317 317 319 318 320 321 320 321 321 313 310 309 314 316 315 316 312 317 318 319 319 320
317 317 320 325 327 325 320 321 322 321 324 323 323 326 324 327 327 323 319 317 317 318 317 317 318 319 319 320 320 322 320 318 313 310 309 309 315 316 314 314 318 318 317 323
316 317 320 323 328 326 326 328 327 324 325 328 329 327 324 327 324 323 319 317 317 318 317 317 318 319 319 320 320 321 320 318 317 316 314 309 308 315 313 313 316 318 318 321
319 317 320 321 321 326 327 329 327 325 326 329 328 327 325 327 327 324 320 318 317 318 318 318 318 319 320 319 320 320 318 318 317 319 318 311 308 308 314 314 315 314 318 321
318 319 319 320 321 325 325 328 328 326 324 327 326 327 327 326 327 326 321 318 317 318 318 318 318 319 319 319 320 320 319 318 317 318 319 313 309 309 311 316 316 318 320 321
318 320 326 329 322 325 326 325 328 327 327 326 327 327 326 327 327 327 324 319 317 317 318 318 318 318 319 319 320 319 319 316 316 318 316 313 309 312 313 312 315 316 316 319
322 321 324 329 327 329 330 327 326 327 326 326 326 326 325 326 327 327 327 321 321 319 319 318 318 318 318 318 319 319 319 316 316 318 316 311 309 311 314 316 315 314 315 315
324 323 324 330 329 331 326 326 326 327 326 323 324 323 324 325 326 327 327 325 323 321 320 319 319 318 318 318 318 317 319 317 315 317 316 312 309 309 312 312 312 311 311 310
322 323 325 332 323 326 327 327 327 327 327 325 324 323 324 326 325 326 327 327 327 326 325 326 322 320 319 318 318 318 319 318 315 316 314 312 309 309 310 310 310 310 309 309
321 322 326 319 327 331 325 324 325 323 327 324 325 323 322 325 325 325 327 327 327 326 326 325 323 320 320 318 318 319 319 320 317 316 313 311 310 310 311 311 310 310 310 310
325 323 325 319 320 323 322 324 324 326 324 323 325 325 324 323 325 326 326 326 327 327 327 324 323 322 323 319 318 319 319 320 320 318 317 312 312 310 312 313 313 312 311 311
325 323 323 321 322 327 323 325 325 323 324 325 325 325 325 326 326 326 326 326 326 327 326 325 324 323 322 320 319 318 319 319 320 320 318 316 314 314 312 314 316 316 315 315
326 322 322 322 322 320 324 325 324 324 324 325 326 326 326 327 327 326 326 327 327 327 326 326 326 325 322 321 320 319 318 319 320 321 319 319 319 316 316 314 316 319 320 319
323 320 322 322 321 320 324 324 324 323 324 324 325 327 327 327 327 327 327 327 327 327 327 326 326 323 323 323 323 323 319 318 319 320 321 320 320 321 320 317 315 316 317 318
323 321 320 321 320 320 321 323 324 323 323 323 325 326 326 326 326 326 326 326 326 327 327 326 327 326 326 326 326 323 320 319 319 319 320 321 320 321 323 323 321 317 317 319
320 322 323 322 319 321 322 323 323 322 322 323 324 324 326 327 327 326 326 326 326 327 326 326 326 327 327 326 327 324 321 320 319 319 320 320 321 321 322 323 324 324 324 323

GFSCGP_850_thetae_006.txt.gz
Theta_e
320 318 317 317 317 319 319 319 319 319 318 317 316 315 317 316 316 316 315 314 315 315 315 316 318 316 315 314 316 317 322 323 324 322 322 322 321 322 322 321 322 322 322 321
318 319 318 318 318 318 317 318 318 317 317 316 317 316 315 315 316 316 316 314 315 315 315 317 318 316 317 314 315 317 321 321 324 322 322 324 324 324 324 323 323 323 325 323
319 320 319 319 319 320 318 319 318 318 318 315 316 315 316 315 316 317 316 316 315 315 315 317 318 317 317 317 313 317 319 319 322 324 324 325 325 325 324 321 325 326 324 325
319 319 320 319 320 319 320 318 319 318 318 317 315 316 315 316 316 316 315 315 315 315 315 317 318 318 315 319 314 317 319 317 322 326 325 323 326 324 325 325 326 326 326 326
322 319 319 320 320 318 320 319 318 318 317 316 317 315 315 318 319 316 315 314 315 315 316 317 317 318 316 320 317 317 320 318 323 325 325 326 326 326 326 323 323 325 326 325
321 320 319 320 319 318 319 318 315 315 314 315 315 316 316 316 318 318 316 315 315 315 316 317 317 317 319 321 320 317 321 319 320 323 323 323 322 323 327 327 324 324 324 324
320 319 319 320 320 317 316 314 316 316 317 318 317 317 317 318 317 317 318 315 316 315 316 316 318 318 319 320 320 319 317 318 317 319 323 322 321 321 325 327 327 325 327 326
320 322 319 318 319 318 314 314 315 317 315 315 318 321 320 318 321 321 321 318 315 315 316 316 317 318 318 320 318 321 320 318 319 317 318 319 321 321 324 326 326 328 327 324
320 320 319 318 318 318 317 315 314 315 317 318 318 320 321 324 322 319 316 315 315 316 316 316 317 318 318 320 319 321 321 319 320 319 318 317 319 319 321 323 325 328 328 328
318 321 319 319 318 316 317 315 317 313 318 319 318 322 323 321 324 321 316 314 315 316 316 316 317 318 318 321 320 321 322 320 318 320 318 317 315 317 319 321 324 326 323 323
316 318 319 319 319 318 318 318 318 313 314 316 316 320 318 324 325 324 319 316 317 317 317 317 316 318 318 320 321 320 322 318 312 318 316 317 315 314 318 318 320 322 323 324
316 316 319 323 321 321 318 317 319 318 318 319 318 320 320 324 325 326 323 318 317 317 318 318 315 317 318 320 319 320 321 318 310 309 311 314 316 317 315 318 318 319 319 321
315 315 317 317 325 325 325 323 319 319 319 324 325 321 320 325 324 324 323 319 318 317 317 317 316 317 318 320 319 320 322 319 316 313 311 309 309 315 313 318 319 318 322 320
318 314 317 320 318 325 326 328 324 321 322 323 325 324 324 325 327 324 320 320 318 317 317 318 316 316 318 318 319 319 319 319 318 316 317 313 309 312 313 316 319 318 321 321
315 316 316 317 317 322 322 324 326 323 322 324 323 325 324 323 325 326 324 319 317 317 317 318 317 315 318 319 319 319 318 318 318 317 318 316 310 309 314 315 316 316 321 320
315 317 315 317 317 317 320 321 326 324 323 325 323 324 322 325 326 326 325 321 318 319 319 318 318 316 316 319 319 318 318 318 317 316 318 318 311 309 311 315 317 319 320 321
315 319 319 318 322 321 322 320 325 325 323 323 325 323 322 325 326 326 326 324 323 320 321 318 319 318 316 317 318 318 316 317 316 315 319 318 312 309 310 312 316 316 317 320
315 319 320 326 325 325 322 321 323 325 324 322 323 322 322 323 325 325 326 326 326 323 322 321 319 319 318 316 318 318 316 317 315 314 318 319 314 310 312 315 313 314 315 315
316 319 323 326 321 324 326 324 324 325 325 323 323 322 322 324 325 325 327 327 327 327 327 325 322 320 319 317 316 318 317 317 316 314 315 317 313 309 311 311 313 312 311 311
319 320 323 318 326 329 324 324 324 322 326 322 323 321 322 323 324 324 326 326 326 326 326 326 325 321 320 319 317 318 316 317 317 316 314 313 312 309 310 310 310 310 309 308
321 320 325 318 319 321 321 323 324 327 325 323 324 323 322 323 325 325 325 325 326 327 327 326 325 324 323 320 318 318 317 316 317 317 316 312 311 309 310 310 310 310 309 310
323 321 322 317 322 325 321 323 327 323 323 323 325 325 325 326 325 325 325 326 326 326 326 326 325 324 323 321 319 318 317 316 316 318 317 315 312 310 310 311 311 310 310 311
324 321 322 321 321 318 323 324 326 325 324 324 324 325 325 325 325 325 325 325 325 325 326 326 327 325 323 322 321 319 317 317 316 319 319 318 314 313 311 312 313 313 313 313
321 318 321 321 320 320 323 324 324 323 324 324 324 324 324 324 325 325 325 326 326 325 326 326 326 325 324 324 323 321 319 317 317 317 319 319 318 315 314 312 313 315 316 315
319 319 319 320 319 320 322 324 324 324 323 324 325 324 324 325 325 326 326 326 326 326 325 326 327 326 326 325 325 322 321 319 318 317 318 320 319 319 317 316 314 313 314 314
318 319 322 321 317 321 322 324 324 323 324 323 323 323 325 326 326 326 326 326 325 325 326 326 325 326 327 326 325 323 322 321 319 318 318 318 320 320 319 320 321 319 317 316

GFSCGP_850_thetae_009.txt.gz
Theta_e
321 324 325 324 323 322 323 323 323 322 321 320 322 322 322 320 318 318 318 316 316 316 315 316 317 316 313 310 316 317 321 322 323 320 322 324 324 324 323 322 321 322 321 323
321 325 325 323 322 321 322 323 323 322 320 320 322 322 322 321 320 319 319 317 317 317 315 315 318 317 314 312 315 318 319 322 323 323 325 325 325 324 322 323 324 324 323 321
325 325 321 322 322 322 323 324 324 324 321 320 320 321 323 322 319 318 318 318 317 317 317 315 318 317 314 314 315 318 318 322 325 325 325 325 324 323 323 326 325 324 325 325
325 322 322 322 324 323 325 323 323 323 323 324 320 324 323 323 323 322 320 317 317 316 316 316 318 317 313 317 315 318 318 322 325 325 325 325 326 324 325 325 326 326 325 325
325 322 323 324 324 323 324 322 323 322 323 321 322 322 322 321 324 324 324 319 317 316 315 316 317 317 313 317 316 319 319 319 323 324 323 322 326 327 325 323 324 325 325 325
325 321 323 324 323 322 323 322 321 320 321 324 323 322 322 323 324 325 324 320 317 317 316 316 316 317 315 318 317 318 319 319 319 323 322 320 322 326 325 325 324 324 325 326
324 324 322 323 324 321 323 324 325 326 326 324 321 322 323 324 325 323 323 322 318 316 316 317 316 317 317 318 319 318 317 318 317 320 321 320 323 324 326 324 326 323 323 322
326 326 323 322 325 324 323 325 325 326 324 324 321 323 322 325 325 324 322 322 317 316 317 318 316 317 316 318 319 320 320 317 318 318 318 320 321 322 325 326 326 325 323 323
325 324 321 322 323 324 321 323 323 324 321 323 323 324 325 327 327 324 321 318 317 316 316 317 316 317 316 318 319 321 321 318 319 318 317 318 319 320 320 327 327 324 325 325
323 324 322 322 322 320 323 321 323 321 324 325 323 325 324 325 327 328 323 320 317 317 317 318 316 316 316 319 320 321 322 320 317 318 317 316 316 318 320 325 324 325 325 327
323 324 323 321 323 324 321 323 322 322 322 325 326 324 326 327 331 333 329 321 318 317 317 318 317 316 317 319 320 320 321 320 312 315 316 316 315 317 318 320 322 322 322 324
323 325 325 323 322 324 324 324 324 325 326 324 324 325 324 329 331 331 329 322 318 318 317 318 317 316 317 319 320 320 320 319 310 309 311 315 316 315 318 318 319 320 322 323
322 327 326 323 327 327 323 323 324 325 325 326 325 325 326 329 330 329 326 321 318 318 317 317 317 315 317 318 320 320 321 320 314 311 309 309 314 316 317 318 317 321 321 319
322 325 326 325 324 325 328 326 324 325 325 324 325 324 327 329 330 328 327 322 319 318 318 318 317 316 317 317 319 319 321 320 317 315 314 310 309 314 314 318 318 322 321 320
324 325 323 323 322 325 325 325 327 326 325 325 325 327 327 328 330 330 327 322 319 319 318 319 318 316 316 317 319 319 320 318 317 316 317 314 309 310 313 315 317 320 321 321
320 324 322 322 321 322 322 322 325 326 325 326 324 326 327 327 328 329 325 321 320 320 319 319 319 317 315 317 317 318 319 317 316 316 317 316 310 308 312 314 314 317 320 318
321 325 322 323 321 321 323 322 322 325 325 325 325 326 327 329 330 329 327 323 323 322 321 320 321 320 316 315 317 318 319 317 316 316 317 317 313 308 311 313 316 318 319 320
323 326 325 325 324 327 324 323 322 323 325 326 325 326 328 328 329 329 329 325 325 324 324 322 320 321 320 315 316 318 319 318 317 315 317 317 314 309 309 312 314 315 316 318
315 320 331 332 329 324 325 326 322 324 325 327 327 326 326 326 327 327 326 325 327 326 327 327 325 321 321 318 315 317 318 319 318 314 315 317 314 309 310 310 311 313 315 314
318 320 320 330 331 328 325 328 325 325 327 327 327 328 328 326 329 328 327 326 326 326 326 327 326 323 321 320 317 316 318 318 318 315 313 315 314 309 309 310 311 310 310 311
318 321 321 322 327 328 326 328 325 329 328 329 327 327 327 329 329 328 326 326 325 325 326 326 326 326 325 322 319 316 317 316 316 315 314 313 313 310 309 309 309 309 308 308
319 320 320 324 323 323 324 326 329 330 327 327 328 328 327 326 328 326 325 325 325 326 326 326 326 326 326 323 320 318 316 313 315 316 315 313 312 311 309 310 310 309 309 309
322 319 320 321 321 326 325 328 326 326 328 324 328 327 326 327 327 325 325 325 325 326 326 326 326 326 325 324 321 319 319 316 314 317 316 314 312 311 309 310 310 310 310 311
314 322 324 323 322 324 325 326 326 326 325 325 324 324 324 325 325 325 325 325 325 325 326 325 325 325 325 324 323 322 320 317 316 314 317 316 314 312 310 310 311 311 311 312
312 318 324 325 324 323 323 325 325 324 323 324 324 324 324 324 324 324 325 324 325 325 325 325 325 325 326 325 324 322 321 319 317 316 316 317 317 315 312 310 311 312 312 313
318 316 321 324 323 325 326 323 324 324 324 324 324 324 324 324 324 326 326 326 326 325 325 325 326 325 325 325 324 323 322 320 318 317 316 316 318 318 316 313 313 311 313 314

GFSCGP_850_thetae_012.txt.gz
Theta_e
324 326 327 327 328 327 326 327 327 327 326 325 326 325 325 324 323 324 323 323 322 321 321 321 323 323 321 321 322 324 324 323 324 328 328 326 327 324 323 322 322 324 322 323
326 327 327 327 327 326 326 327 328 327 326 325 325 325 325 325 325 325 325 324 323 322 321 322 323 324 322 321 320 324 325 323 326 328 325 325 325 322 326 325 324 324 324 322
326 326 327 327 327 327 327 328 328 328 327 325 325 326 326 325 325 324 324 324 324 323 322 322 323 324 322 321 321 323 324 325 327 326 327 327 325 326 326 325 325 325 324 322
326 326 327 327 328 327 328 327 326 327 326 326 325 327 325 325 324 324 325 325 324 323 322 322 323 324 321 321 322 323 325 324 327 325 327 327 328 328 325 326 326 326 326 325
326 327 327 327 327 326 327 326 326 326 326 326 326 327 325 324 324 325 325 326 325 323 322 322 323 323 320 322 322 324 326 321 326 324 323 328 329 326 326 326 324 326 327 326
326 326 327 327 326 325 325 326 326 326 326 328 326 326 324 323 324 325 326 327 325 323 322 322 323 321 319 322 321 323 326 320 326 328 323 324 328 327 325 325 323 324 327 326
326 326 326 326 326 326 326 327 328 329 328 327 326 324 324 324 324 326 327 328 326 323 322 322 322 321 320 322 321 323 324 324 320 327 325 323 326 326 326 326 324 323 324 327
326 326 327 326 325 326 326 327 327 328 328 327 325 325 324 325 327 328 328 328 326 323 322 322 322 321 319 321 322 322 322 323 323 325 323 323 323 326 327 326 325 323 325 324
326 326 326 326 325 325 326 327 326 327 327 327 326 326 325 325 327 329 329 326 325 323 322 322 323 321 319 320 323 324 323 322 322 323 324 323 323 324 327 324 324 324 325 326
326 328 325 326 325 325 326 325 326 327 329 329 326 326 325 325 325 331 331 327 325 323 322 323 323 321 320 320 323 325 324 321 323 322 323 321 322 323 325 326 324 325 325 323
325 327 327 325 326 325 325 327 326 327 327 328 329 327 326 325 327 329 333 328 325 323 322 323 323 321 320 321 322 325 325 322 321 322 322 321 320 323 322 322 322 322 325 327
325 325 327 326 325 325 326 325 327 328 328 327 327 327 326 327 328 331 334 329 325 324 323 323 323 321 320 322 322 324 325 322 318 318 321 322 320 322 322 324 322 325 326 327
325 325 326 325 327 326 325 325 326 327 328 328 329 328 327 328 331 331 333 329 325 324 323 323 323 321 320 321 321 322 324 322 317 316 318 320 321 321 318 319 323 324 321 325
326 325 326 327 327 326 327 324 325 327 329 328 327 327 328 328 329 331 332 330 326 324 323 323 323 321 320 320 321 322 323 322 317 317 317 317 321 321 320 320 323 325 324 325
327 328 324 324 324 325 325 325 325 326 327 328 326 326 326 327 328 329 331 330 327 324 323 323 323 322 320 320 321 321 323 322 319 318 318 317 316 319 321 322 322 323 324 323
326 325 324 324 323 323 324 325 326 326 326 326 326 326 326 326 325 328 331 330 328 326 324 324 324 323 320 320 321 321 322 322 320 319 319 318 315 318 319 321 321 319 322 323
326 324 325 325 322 322 325 324 325 326 326 326 326 326 326 326 328 328 331 329 329 328 325 324 324 324 321 320 321 322 322 322 321 320 320 319 315 316 317 320 320 323 320 318
326 326 325 325 324 326 324 324 323 324 325 325 325 325 325 325 326 327 328 330 329 329 327 325 325 324 323 321 321 321 322 322 321 321 321 320 316 315 317 320 321 319 319 318
324 328 325 326 328 324 325 325 324 323 324 324 326 325 324 324 326 327 328 329 329 330 329 327 325 325 325 322 321 321 322 321 320 320 321 320 317 316 317 318 321 319 319 319
319 324 326 327 331 327 325 325 324 325 326 325 326 327 327 325 329 328 327 329 329 330 330 329 327 326 326 323 321 322 322 321 321 320 320 320 318 316 317 317 318 314 314 316
321 322 325 328 331 326 326 325 325 327 326 326 326 326 327 328 329 325 328 330 330 331 330 330 328 327 326 324 323 321 321 321 321 320 319 320 319 317 318 319 313 310 311 318
321 322 323 325 326 326 325 327 328 326 332 328 328 328 329 328 329 329 330 330 330 331 329 329 328 327 327 325 324 323 321 321 321 320 319 320 321 317 317 313 310 310 312 315
322 320 321 321 324 328 325 326 327 327 327 328 328 331 329 330 330 330 330 330 330 330 330 328 328 328 327 326 325 324 323 322 321 321 320 321 321 318 317 312 310 314 308 315
318 319 321 322 322 323 323 325 327 329 329 329 330 331 331 330 331 331 330 330 329 330 330 328 328 328 327 327 325 323 324 323 320 321 321 322 322 320 317 317 316 317 317 317
316 317 318 321 322 321 321 320 322 327 329 329 329 329 330 330 330 329 329 329 329 329 330 329 328 328 328 327 327 326 325 324 321 321 322 323 322 318 318 315 317 317 317 317
316 315 316 318 318 321 321 321 321 323 328 328 328 328 328 328 328 328 329 329 328 328 329 329 328 328 328 327 327 326 325 324 323 321 322 322 322 322 320 317 316 315 317 312

GFSCGP_850_thetae_015.txt.gz
Theta_e
323 326 327 328 328 328 329 330 330 330 330 329 329 329 329 327 326 326 325 326 326 326 324 325 325 326 325 323 324 328 327 328 329 330 330 329 328 327 328 324 324 323 324 327
326 327 327 327 327 328 330 330 329 330 330 329 330 329 328 327 326 326 326 326 327 327 325 325 326 326 326 324 323 327 328 329 331 328 329 329 330 328 325 325 326 326 326 326
325 327 326 327 328 329 330 330 329 330 330 330 329 329 328 328 327 325 325 326 327 327 326 325 326 327 326 324 324 326 329 331 332 330 330 328 329 327 327 326 326 326 326 327
325 326 327 327 328 329 330 329 329 329 330 330 328 329 328 328 327 326 326 326 327 328 327 326 326 327 326 324 325 327 330 331 332 327 330 330 329 328 326 325 326 326 326 326
324 326 327 327 328 329 329 328 328 328 329 329 328 329 328 327 326 326 326 326 328 328 327 326 326 327 325 323 325 327 329 330 332 331 330 331 328 327 327 325 324 326 326 326
323 324 326 327 328 328 329 328 327 328 328 330 328 329 328 327 326 325 326 327 329 328 327 326 326 326 324 323 325 327 329 328 331 331 329 330 328 327 326 325 325 327 326 326
323 324 327 327 328 328 328 328 329 330 331 330 328 328 328 327 325 325 327 328 331 328 327 326 326 325 323 323 324 327 328 327 329 330 329 329 330 328 325 325 324 325 327 329
325 325 327 328 329 329 328 328 328 330 331 331 329 329 328 327 325 325 328 331 331 328 326 326 326 325 323 324 323 325 326 326 328 328 329 328 330 328 327 324 325 326 327 327
326 327 326 328 328 328 328 328 327 329 329 329 330 330 328 326 325 327 330 330 330 327 326 326 326 325 322 323 323 325 325 326 326 327 328 327 330 329 326 324 326 325 328 328
327 327 327 327 328 327 327 327 328 328 330 332 330 329 328 326 326 330 332 331 329 326 326 326 326 325 322 323 325 325 325 324 325 326 326 326 329 331 326 325 326 325 324 326
325 328 328 327 329 328 326 327 328 329 329 330 331 330 329 328 327 328 332 331 328 326 326 326 326 325 322 322 324 326 326 323 325 325 326 325 327 328 327 328 324 327 325 325
326 328 330 328 328 328 327 327 329 329 330 329 330 330 328 327 327 328 331 331 328 326 326 326 326 325 322 323 324 325 326 322 322 324 325 324 326 328 329 330 328 327 327 326
327 329 331 331 329 328 328 327 327 329 330 331 330 330 329 329 327 328 330 331 329 327 326 326 326 324 321 323 323 324 326 323 320 320 324 324 324 327 328 329 323 331 329 330
328 330 330 331 331 328 328 326 327 328 331 330 330 329 329 329 328 328 330 330 330 327 326 326 326 324 321 323 323 324 325 323 319 318 320 324 323 325 327 328 326 328 330 331
330 332 328 328 328 328 327 327 326 327 328 330 330 329 329 329 329 328 330 331 330 329 327 326 327 325 322 323 323 323 324 324 319 319 319 321 323 323 326 328 328 326 327 330
331 332 328 327 326 327 328 327 327 326 327 328 329 329 328 327 327 328 328 331 330 330 327 327 327 326 323 322 323 323 324 323 320 319 319 319 322 322 323 327 328 328 326 325
327 330 331 328 326 325 328 327 327 326 325 326 328 328 328 327 328 327 328 330 330 330 328 327 327 327 323 322 323 323 324 323 321 321 320 319 319 321 323 324 325 326 326 326
330 331 328 329 327 328 326 326 326 327 327 327 327 327 328 328 326 326 326 328 330 330 330 328 327 327 325 322 323 323 324 323 321 321 321 319 317 320 322 322 324 325 326 326
329 333 327 330 330 326 325 325 325 326 326 327 328 328 328 326 326 326 326 327 330 330 330 329 328 328 326 323 323 324 323 323 322 322 322 320 317 318 320 322 324 327 327 327
326 328 333 329 329 327 326 325 325 326 328 326 327 327 327 326 326 327 327 327 329 330 330 331 329 328 328 325 323 323 324 323 322 322 322 321 318 318 319 322 325 326 327 327
324 329 330 327 331 326 326 326 325 327 326 329 325 325 326 328 326 326 327 327 328 330 330 331 331 329 328 326 323 323 323 324 323 322 322 321 320 319 319 320 324 325 325 324
323 327 326 327 326 327 326 326 328 327 328 326 326 326 326 326 326 326 327 329 330 330 331 332 331 330 329 328 325 324 323 324 323 322 321 322 321 319 320 321 322 323 322 322
325 324 325 325 327 328 326 327 326 326 327 328 328 328 328 327 327 327 327 330 330 331 331 331 332 331 330 329 327 326 323 323 323 322 322 322 323 319 321 323 323 321 320 320
321 322 326 327 326 327 326 326 327 327 327 327 328 329 329 329 328 329 329 331 331 331 332 331 332 331 331 331 328 327 326 324 323 323 322 322 323 321 320 322 322 320 320 319
320 321 322 324 324 324 324 325 326 327 328 330 330 330 330 330 330 330 330 330 330 332 332 331 331 332 332 332 330 328 328 325 323 323 323 322 324 321 320 321 321 320 319 319
317 319 321 323 323 323 323 323 323 324 326 327 328 328 329 330 330 330 330 330 330 330 331 332 331 331 332 332 331 330 328 327 324 323 323 323 323 323 320 320 320 318 319 318